KN4TIM Weather Reports


time (UTC)temp
F
wind
direction
speed
knots
gust
knots
rain 1hr
in
rain 24hr
in
rain mn
in
humidity
%
barometer
mb
20260505125001 60 217 0.0 1.7 0.00 0.00 0.00 79 1018.1
20260505124500 60 115 0.0 2.6 0.00 0.00 0.00 80 1018.1
20260505124003 60 101 0.0 2.6 0.00 0.00 0.00 80 1018.0
20260505123501 59 98 0.0 1.7 0.00 0.00 0.00 82 1018.0
20260505123001 58 205 0.9 1.7 0.00 0.00 0.00 83 1018.0
20260505122500 58 189 0.0 0.9 0.00 0.00 0.00 84 1018.0
20260505122001 57 231 0.0 0.9 0.00 0.00 0.00 85 1018.1
20260505121501 56 231 0.0 0.9 0.00 0.00 0.00 85 1018.1
20260505121001 56 231 0.0 0.9 0.00 0.00 0.00 87 1018.0
20260505120504 55 242 0.0 0.9 0.00 0.00 0.00 87 1017.9
20260505120002 55 242 0.0 0.9 0.00 0.00 0.00 89 1017.9
20260505115502 54 242 0.0 0.9 0.00 0.00 0.00 90 1018.0
20260505115003 53 303 0.0 0.0 0.00 0.00 0.00 91 1017.9
20260505114502 52 303 0.0 0.0 0.00 0.00 0.00 92 1017.9
20260505114002 52 303 0.0 0.0 0.00 0.00 0.00 92 1017.9
20260505113500 51 303 0.0 0.0 0.00 0.00 0.00 91 1017.8
20260505113001 51 303 0.0 0.0 0.00 0.00 0.00 91 1017.8
20260505112501 51 303 0.0 0.0 0.00 0.00 0.00 90 1017.7
20260505112001 51 303 0.0 0.0 0.00 0.00 0.00 90 1017.7
20260505111002 50 303 0.0 0.0 0.00 0.00 0.00 90 1017.7
20260505110502 50 303 0.0 0.0 0.00 0.00 0.00 90 1017.7
20260505101003 51 303 0.0 0.0 0.00 0.00 0.00 87 1017.2
20260505100502 51 303 0.0 0.0 0.00 0.00 0.00 87 1017.1
20260505100002 51 303 0.0 0.0 0.00 0.00 0.00 87 1017.0
20260505095502 51 303 0.0 0.0 0.00 0.00 0.00 86 1017.1
20260505095001 51 303 0.0 0.0 0.00 0.00 0.00 86 1017.0
20260505094503 51 303 0.0 0.0 0.00 0.00 0.00 86 1017.0
20260505091003 53 303 0.0 0.0 0.00 0.00 0.00 82 1017.0
20260505090502 54 303 0.0 0.0 0.00 0.00 0.00 81 1017.0
20260505090004 55 303 0.0 0.0 0.00 0.00 0.00 80 1017.0
20260505085502 55 303 0.0 0.0 0.00 0.00 0.00 79 1016.9
20260505085002 56 303 0.0 0.0 0.00 0.00 0.00 79 1016.9
20260505084502 56 303 0.0 0.9 0.00 0.00 0.00 78 1016.9
20260505081003 57 314 0.0 2.6 0.00 0.00 0.00 76 1016.6
20260505080503 57 258 0.0 0.9 0.00 0.00 0.00 75 1016.5
20260505080003 58 259 0.0 0.9 0.00 0.00 0.00 75 1016.4
20260505075502 58 46 0.0 1.7 0.00 0.00 0.00 75 1016.4
20260505075002 58 207 0.0 1.7 0.00 0.00 0.00 75 1016.3
20260505074503 58 189 0.0 1.7 0.00 0.00 0.00 74 1016.3
20260505071502 58 135 0.0 1.7 0.00 0.00 0.00 73 1016.4
20260505071002 58 146 0.0 2.6 0.00 0.00 0.00 73 1016.3
20260505070502 58 220 0.0 2.6 0.00 0.00 0.00 72 1016.4
20260505070003 58 212 0.0 1.7 0.00 0.00 0.00 72 1016.3
20260505065502 58 219 0.0 2.6 0.00 0.00 0.00 72 1016.3
20260505065002 58 172 0.0 2.6 0.00 0.00 0.00 72 1016.3
20260505062002 59 289 0.9 3.5 0.00 0.00 0.00 70 1016.6
20260505061509 59 218 0.9 3.5 0.00 0.00 0.00 70 1016.6
20260505061003 59 226 0.9 2.6 0.00 0.00 0.00 70 1016.7
20260505060504 59 252 0.0 2.6 0.00 0.00 0.00 69 1016.7
20260505060003 59 210 0.0 2.6 0.00 0.00 0.00 69 1016.7
20260505053004 59 275 0.0 2.6 0.00 0.00 0.00 68 1016.8
20260505052502 60 205 0.9 3.5 0.00 0.00 0.00 68 1016.8
20260505052002 60 237 0.9 3.5 0.00 0.00 0.00 68 1017.0
20260505051504 60 217 0.0 2.6 0.00 0.00 0.00 68 1017.0
20260505051002 60 212 0.0 2.6 0.00 0.00 0.00 67 1016.9
20260505050506 60 218 0.0 2.6 0.00 0.00 0.00 67 1017.1
20260505041504 61 214 0.0 2.6 0.00 0.00 0.00 65 1017.2
20260505034006 62 173 0.0 2.6 0.00 0.00 0.00 62 1017.2
20260505033507 63 227 0.9 2.6 0.00 0.00 0.00 62 1017.2
20260505033004 63 205 0.0 2.6 0.00 0.00 0.00 61 1017.1
20260505032503 63 226 0.0 2.6 0.00 0.00 0.00 61 1017.1
20260505032002 63 212 0.0 1.7 0.00 0.00 0.00 61 1017.1
20260505031505 63 219 0.9 1.7 0.00 0.00 0.00 61 1017.2
20260505024003 65 197 0.0 1.7 0.00 0.00 0.00 58 1016.9
20260505023503 65 209 0.0 2.6 0.00 0.00 0.00 58 1016.9
20260505023004 65 226 0.9 2.6 0.00 0.00 0.00 58 1016.8
20260505022504 65 116 0.9 3.5 0.00 0.00 0.00 57 1016.8
20260505022003 65 134 0.9 3.5 0.00 0.00 0.00 57 1016.8
20260505021507 65 186 0.0 1.7 0.00 0.00 0.00 57 1016.8
20260505014003 66 264 0.9 2.6 0.00 0.00 0.00 53 1016.5
20260505013502 67 159 0.9 2.6 0.00 0.00 0.00 52 1016.4
20260505013005 67 122 0.0 2.6 0.00 0.00 0.00 51 1016.4
20260505012507 67 245 0.0 3.5 0.00 0.00 0.00 50 1016.3
20260505012004 67 248 0.9 3.5 0.00 0.00 0.00 47 1016.2
20260505011503 67 134 0.9 2.6 0.00 0.00 0.00 46 1016.1
20260505005002 69 238 0.0 0.9 0.00 0.00 0.00 44 1015.8
20260505004503 69 238 0.0 0.9 0.00 0.00 0.00 43 1015.7
20260505004003 69 220 0.0 0.9 0.00 0.00 0.00 43 1015.7
20260505003502 69 220 0.0 1.7 0.00 0.00 0.00 42 1015.6
20260505003007 70 220 0.0 1.7 0.00 0.00 0.00 43 1015.6
20260505002505 70 215 0.0 0.9 0.00 0.00 0.00 41 1015.5
20260505000008 72 242 0.0 0.9 0.00 0.00 0.00 38 1015.2
20260504235502 73 191 0.0 2.6 0.00 0.00 0.00 38 1015.2
20260504235001 73 191 0.0 3.5 0.00 0.00 0.00 37 1015.2
20260504234508 73 165 0.0 3.5 0.00 0.00 0.00 37 1015.1
20260504234003 74 223 0.9 2.6 0.00 0.00 0.00 36 1015.1
20260504233505 74 198 0.0 2.6 0.00 0.00 0.00 35 1015.1
20260504233010 74 192 0.9 2.6 0.00 0.00 0.00 35 1015.0
20260504232507 75 185 0.0 2.6 0.00 0.00 0.00 34 1015.0
20260504232002 75 199 0.0 4.3 0.00 0.00 0.00 34 1015.1
20260504231503 76 232 0.0 4.3 0.00 0.00 0.00 33 1015.1
20260504231002 76 214 0.9 3.5 0.00 0.00 0.00 32 1015.0
20260504230504 76 283 1.7 3.5 0.00 0.00 0.00 32 1015.1
20260504230012 77 172 0.9 2.6 0.00 0.00 0.00 31 1015.1
20260504225505 78 286 0.9 2.6 0.00 0.00 0.00 32 1015.1
20260504225004 78 157 0.9 2.6 0.00 0.00 0.00 31 1015.1
20260504224505 79 231 0.0 3.5 0.00 0.00 0.00 31 1015.1
20260504224004 79 114 0.9 3.5 0.00 0.00 0.00 30 1015.1
20260504223503 78 162 0.9 4.3 0.00 0.00 0.00 30 1015.1
20260504223006 79 127 1.7 6.1 0.00 0.00 0.00 29 1015.1
20260504222511 80 264 1.7 6.1 0.00 0.00 0.00 29 1015.1
20260504222007 80 162 0.9 5.2 0.00 0.00 0.00 29 1015.1
20260504221505 80 224 0.9 5.2 0.00 0.00 0.00 29 1015.0
20260504221003 81 77 2.6 5.2 0.00 0.00 0.00 28 1015.0
20260504220507 81 299 0.9 6.1 0.00 0.00 0.00 29 1014.9
20260504220007 82 186 1.7 6.1 0.00 0.00 0.00 28 1014.9
20260504215504 82 133 1.7 5.2 0.00 0.00 0.00 28 1014.9
20260504215009 82 285 1.7 5.2 0.00 0.00 0.00 27 1014.8
20260504214504 82 243 0.9 3.5 0.00 0.00 0.00 28 1014.7
20260504214002 82 116 0.9 3.5 0.00 0.00 0.00 28 1014.9
20260504213503 82 184 0.9 3.5 0.00 0.00 0.00 27 1014.9
20260504213031 82 117 0.9 6.1 0.00 0.00 0.00 27 1014.9
20260504212504 82 231 1.7 6.1 0.00 0.00 0.00 27 1014.9
20260504212004 82 108 1.7 6.1 0.00 0.00 0.00 26 1014.9
20260504211515 82 86 0.9 6.1 0.00 0.00 0.00 26 1014.9
20260504211004 82 119 0.9 3.5 0.00 0.00 0.00 26 1014.9
20260504210503 83 212 0.9 3.5 0.00 0.00 0.00 25 1014.9
20260504210011 83 84 1.7 4.3 0.00 0.00 0.00 25 1014.8
20260504205504 83 302 0.9 4.3 0.00 0.00 0.00 27 1015.0
20260504205003 83 228 0.9 4.3 0.00 0.00 0.00 25 1014.9
20260504204508 83 235 1.7 4.3 0.00 0.00 0.00 26 1015.0
20260504204004 83 124 0.9 3.5 0.00 0.00 0.00 27 1015.0
20260504203511 83 119 0.9 4.3 0.00 0.00 0.00 27 1015.0
20260504203010 83 122 0.9 4.3 0.00 0.00 0.00 26 1015.1
20260504202504 84 134 0.9 4.3 0.00 0.00 0.00 25 1015.2
20260504202003 83 186 0.9 4.3 0.00 0.00 0.00 26 1015.3
20260504201517 83 325 1.7 4.3 0.00 0.00 0.00 24 1015.4
20260504201002 83 302 0.9 4.3 0.00 0.00 0.00 24 1015.4
20260504200502 83 196 0.9 4.3 0.00 0.00 0.00 25 1015.4
20260504200004 82 65 1.7 5.2 0.00 0.00 0.00 28 1015.5
20260504195502 82 120 1.7 5.2 0.00 0.00 0.00 27 1015.5
20260504195003 82 127 0.9 5.2 0.00 0.00 0.00 26 1015.5
20260504194504 83 89 1.7 5.2 0.00 0.00 0.00 26 1015.5
20260504194003 83 112 0.9 5.2 0.00 0.00 0.00 27 1015.5
20260504193503 83 77 1.7 3.5 0.00 0.00 0.00 27 1015.6
20260504193003 83 278 0.9 3.5 0.00 0.00 0.00 27 1015.6
20260504192503 83 126 1.7 3.5 0.00 0.00 0.00 27 1015.7
20260504192003 82 126 1.7 4.3 0.00 0.00 0.00 26 1015.7
20260504191508 82 264 2.6 6.1 0.00 0.00 0.00 26 1015.8
20260504191008 82 70 0.9 6.1 0.00 0.00 0.00 26 1015.9
20260504190504 82 304 0.9 4.3 0.00 0.00 0.00 26 1015.9
20260504190013 82 193 1.7 4.3 0.00 0.00 0.00 24 1016.0
20260504185506 82 54 1.7 4.3 0.00 0.00 0.00 26 1016.2
20260504184511 82 103 1.7 4.3 0.00 0.00 0.00 27 1016.5
20260504184003 82 216 0.9 4.3 0.00 0.00 0.00 25 1016.6
20260504183505 81 129 0.9 6.1 0.00 0.00 0.00 27 1016.6
20260504183006 81 302 1.7 6.1 0.00 0.00 0.00 26 1016.7
20260504182506 81 121 1.7 2.6 0.00 0.00 0.00 25 1016.8
20260504182004 81 13 1.7 4.3 0.00 0.00 0.00 24 1016.9
20260504181504 81 131 1.7 4.3 0.00 0.00 0.00 24 1017.1
20260504181004 81 315 0.9 4.3 0.00 0.00 0.00 23 1017.0
20260504180504 81 11 0.9 4.3 0.00 0.00 0.00 24 1017.1
20260504180009 82 316 0.9 4.3 0.00 0.00 0.00 23 1017.0
20260504175505 81 274 1.7 4.3 0.00 0.00 0.00 24 1017.0
20260504175006 81 278 0.9 3.5 0.00 0.00 0.00 26 1017.1
20260504174514 80 68 0.9 3.5 0.00 0.00 0.00 27 1017.1
20260504174007 80 93 1.7 6.1 0.00 0.00 0.00 26 1017.1
20260504173506 80 266 0.9 6.1 0.00 0.00 0.00 27 1017.2
20260504173002 79 141 0.9 2.6 0.00 0.00 0.00 27 1017.4
20260504172502 79 91 1.7 4.3 0.00 0.00 0.00 27 1017.5
20260504172002 79 164 0.9 6.1 0.00 0.00 0.00 27 1017.5
20260504171503 79 319 1.7 6.1 0.00 0.00 0.00 28 1017.5
20260504171004 78 102 1.7 4.3 0.00 0.00 0.00 29 1017.6
20260504170504 78 251 1.7 4.3 0.00 0.00 0.00 28 1017.7
20260504151011 74 284 1.7 6.1 0.00 0.00 0.00 36 1018.4
20260504150507 74 334 1.7 5.2 0.00 0.00 0.00 38 1018.5
20260504141009 68 300 0.9 3.5 0.00 0.00 0.00 48 1018.6
20260504140507 67 261 0.9 2.6 0.00 0.00 0.00 50 1018.5